2020-03-16 00:08:19 r, 00.00m,0000563715Hz,0000000000c,0000000.000s, 021.2C,00002195
2020-03-16 00:18:16 r, 00.00m,0000563695Hz,0000000000c,0000000.000s, 020.6C,00002195
2020-03-16 00:28:16 r, 00.00m,0000563678Hz,0000000000c,0000000.000s, 020.9C,00002195
2020-03-16 00:38:16 r, 00.00m,0000563612Hz,0000000000c,0000000.000s, 020.9C,00002195
2020-03-16 00:48:16 r, 00.00m,0000563577Hz,0000000000c,0000000.000s, 020.6C,00002195
2020-03-16 00:58:16 r, 00.00m,0000563531Hz,0000000000c,0000000.000s, 020.6C,00002195
2020-03-16 01:08:16 r, 00.00m,0000563549Hz,0000000000c,0000000.000s, 020.6C,00002195
2020-03-16 01:18:16 r, 00.00m,0000563631Hz,0000000000c,0000000.000s, 020.6C,00002195
2020-03-16 01:28:16 r, 00.00m,0000563617Hz,0000000000c,0000000.000s, 020.6C,00002195
2020-03-16 01:38:16 r, 00.00m,0000563583Hz,0000000000c,0000000.000s, 020.6C,00002195
2020-03-16 01:48:17 r, 00.00m,0000563562Hz,0000000000c,0000000.000s, 020.3C,00002195
2020-03-16 01:58:16 r, 00.00m,0000563413Hz,0000000000c,0000000.000s, 019.9C,00002195
2020-03-16 02:08:16 r, 00.00m,0000563383Hz,0000000000c,0000000.000s, 019.9C,00002195
2020-03-16 02:18:17 r, 00.00m,0000563271Hz,0000000000c,0000000.000s, 019.6C,00002195
2020-03-16 02:28:16 r, 00.00m,0000563260Hz,0000000000c,0000000.000s, 019.3C,00002195
2020-03-16 02:38:16 r, 00.00m,0000563161Hz,0000000000c,0000000.000s, 018.6C,00002195
2020-03-16 02:48:18 r, 00.00m,0000563017Hz,0000000000c,0000000.000s, 018.0C,00002195
2020-03-16 02:58:16 r, 00.00m,0000562955Hz,0000000000c,0000000.000s, 017.4C,00002195
2020-03-16 03:08:16 r, 00.00m,0000562961Hz,0000000000c,0000000.000s, 017.4C,00002195
2020-03-16 03:18:16 r, 00.00m,0000562957Hz,0000000000c,0000000.000s, 017.0C,00002195
2020-03-16 03:28:16 r, 00.00m,0000562858Hz,0000000000c,0000000.000s, 017.0C,00002195
2020-03-16 03:38:16 r, 00.00m,0000562843Hz,0000000000c,0000000.000s, 016.7C,00002195
2020-03-16 03:48:19 r, 00.00m,0000541357Hz,0000000000c,0000000.000s, 016.1C,00002195
2020-03-16 03:58:16 r, 00.00m,0000431380Hz,0000000000c,0000000.000s, 015.7C,00002195
2020-03-16 04:08:16 r, 06.16m,0000306324Hz,0000000000c,0000000.000s, 015.1C,00002195
2020-03-16 04:18:16 r, 06.62m,0000200312Hz,0000000000c,0000000.000s, 014.5C,00002195
2020-03-16 04:28:16 r, 07.30m,0000106719Hz,0000000000c,0000000.000s, 013.8C,00002195
2020-03-16 04:38:16 r, 08.38m,0000039776Hz,0000000000c,0000000.000s, 013.2C,00002195
2020-03-16 04:48:16 r, 09.96m,0000009249Hz,0000000000c,0000000.000s, 012.8C,00002195
2020-03-16 04:58:16 r, 11.86m,0000001607Hz,0000000000c,0000000.000s, 012.5C,00002195
2020-03-16 05:08:16 r, 13.82m,0000000265Hz,0000000000c,0000000.000s, 012.5C,00002195
2020-03-16 05:18:17 r, 15.37m,0000000063Hz,0000007343c,0000000.016s, 012.2C,00002195
2020-03-16 05:28:17 r, 16.14m,0000000032Hz,0000014875c,0000000.032s, 012.2C,00002195
2020-03-16 05:38:18 r, 15.61m,0000000050Hz,0000009215c,0000000.020s, 012.2C,00002195
2020-03-16 05:48:16 r, 15.36m,0000000064Hz,0000007245c,0000000.016s, 012.5C,00002195
2020-03-16 05:58:16 r, 15.37m,0000000063Hz,0000007299c,0000000.016s, 012.5C,00002195
2020-03-16 06:08:16 r, 15.74m,0000000045Hz,0000010256c,0000000.022s, 012.5C,00002195
2020-03-16 06:18:16 r, 15.45m,0000000059Hz,0000007872c,0000000.017s, 012.5C,00002195
2020-03-16 06:28:18 r, 15.97m,0000000035Hz,0000012781c,0000000.028s, 012.8C,00002195
2020-03-16 06:38:16 r, 16.29m,0000000027Hz,0000017145c,0000000.037s, 012.8C,00002195
2020-03-16 06:48:16 r, 16.67m,0000000019Hz,0000024198c,0000000.053s, 012.8C,00002195
2020-03-16 06:58:16 r, 16.50m,0000000023Hz,0000020792c,0000000.045s, 012.8C,00002195
2020-03-16 07:08:16 r, 17.59m,0000000008Hz,0000056592c,0000000.123s, 012.8C,00002195
2020-03-16 07:18:18 r, 17.79m,0000000006Hz,0000067958c,0000000.147s, 012.5C,00002195
2020-03-16 07:28:17 r, 17.76m,0000000007Hz,0000066334c,0000000.144s, 012.5C,00002195
2020-03-16 07:38:16 r, 17.79m,0000000007Hz,0000067782c,0000000.147s, 012.2C,00002195
2020-03-16 07:48:16 r, 17.78m,0000000007Hz,0000067117c,0000000.146s, 011.9C,00002195
2020-03-16 07:58:16 r, 17.77m,0000000006Hz,0000066980c,0000000.145s, 011.9C,00002195
2020-03-16 08:08:16 r, 17.75m,0000000007Hz,0000065405c,0000000.142s, 011.9C,00002195
2020-03-16 08:18:16 r, 17.76m,0000000007Hz,0000066210c,0000000.144s, 011.6C,00002195
2020-03-16 08:28:16 r, 17.72m,0000000008Hz,0000063500c,0000000.138s, 011.6C,00002195
2020-03-16 08:38:16 r, 17.74m,0000000007Hz,0000065209c,0000000.142s, 011.6C,00002195
2020-03-16 08:48:16 r, 17.75m,0000000007Hz,0000065329c,0000000.142s, 011.2C,00002195
2020-03-16 08:58:18 r, 17.76m,0000000007Hz,0000066220c,0000000.144s, 011.2C,00002195
2020-03-16 09:08:16 r, 17.78m,0000000006Hz,0000067166c,0000000.146s, 011.2C,00002195
2020-03-16 09:18:18 r, 17.79m,0000000007Hz,0000068025c,0000000.148s, 010.9C,00002195
2020-03-16 09:28:16 r, 17.79m,0000000006Hz,0000068028c,0000000.148s, 010.9C,00002195
2020-03-16 09:38:16 r, 17.80m,0000000006Hz,0000069078c,0000000.150s, 010.6C,00002195
2020-03-16 09:48:17 r, 17.82m,0000000006Hz,0000069979c,0000000.152s, 010.6C,00002195
2020-03-16 09:58:16 r, 17.82m,0000000006Hz,0000070647c,0000000.153s, 010.6C,00002195
2020-03-16 10:08:16 r, 17.82m,0000000007Hz,0000070142c,0000000.152s, 010.6C,00002195
2020-03-16 10:18:16 r, 17.82m,0000000007Hz,0000069677c,0000000.151s, 010.6C,00002195
2020-03-16 10:28:16 r, 17.80m,0000000007Hz,0000068997c,0000000.150s, 010.9C,00002195
2020-03-16 10:38:16 r, 17.80m,0000000007Hz,0000068887c,0000000.149s, 010.9C,00002195
2020-03-16 10:48:17 r, 17.80m,0000000007Hz,0000068957c,0000000.150s, 011.2C,00002195
2020-03-16 10:58:18 r, 17.80m,0000000007Hz,0000069108c,0000000.150s, 011.6C,00002195
2020-03-16 11:08:16 r, 17.81m,0000000006Hz,0000069186c,0000000.150s, 011.6C,00002195
2020-03-16 11:18:16 r, 17.81m,0000000007Hz,0000069159c,0000000.150s, 011.6C,00002195
2020-03-16 11:28:19 r, 17.82m,0000000007Hz,0000069934c,0000000.152s, 011.6C,00002195
2020-03-16 11:38:16 r, 17.82m,0000000007Hz,0000070142c,0000000.152s, 011.6C,00002195
2020-03-16 11:48:16 r, 17.83m,0000000007Hz,0000070886c,0000000.154s, 011.6C,00002195
2020-03-16 11:58:16 r, 17.82m,0000000007Hz,0000070080c,0000000.152s, 011.6C,00002195
2020-03-16 12:08:16 r, 17.82m,0000000007Hz,0000070065c,0000000.152s, 011.6C,00002195
2020-03-16 12:18:16 r, 17.82m,0000000006Hz,0000070102c,0000000.152s, 011.6C,00002195
2020-03-16 12:28:16 r, 17.82m,0000000006Hz,0000070165c,0000000.152s, 011.6C,00002195
2020-03-16 12:38:16 r, 17.82m,0000000006Hz,0000070395c,0000000.153s, 011.2C,00002195
2020-03-16 12:48:19 r, 17.82m,0000000006Hz,0000070078c,0000000.152s, 011.2C,00002195
2020-03-16 12:58:17 r, 17.82m,0000000007Hz,0000070027c,0000000.152s, 010.9C,00002195
2020-03-16 13:08:16 r, 17.80m,0000000007Hz,0000068905c,0000000.150s, 010.6C,00002195
2020-03-16 13:18:16 r, 17.79m,0000000007Hz,0000068212c,0000000.148s, 010.6C,00002195
2020-03-16 13:28:18 r, 17.80m,0000000007Hz,0000068913c,0000000.150s, 010.6C,00002195
2020-03-16 13:38:16 r, 17.79m,0000000007Hz,0000068467c,0000000.149s, 010.3C,00002195
2020-03-16 13:48:16 r, 17.81m,0000000007Hz,0000069147c,0000000.150s, 010.3C,00002195
2020-03-16 13:58:19 r, 17.82m,0000000006Hz,0000070138c,0000000.152s, 009.9C,00002195
2020-03-16 14:08:16 r, 17.84m,0000000007Hz,0000070890c,0000000.154s, 009.9C,00002195
2020-03-16 14:18:16 r, 17.84m,0000000006Hz,0000071034c,0000000.154s, 009.9C,00002195
2020-03-16 14:28:19 r, 17.84m,0000000006Hz,0000070833c,0000000.154s, 009.6C,00002195
2020-03-16 14:38:16 r, 17.83m,0000000007Hz,0000070235c,0000000.152s, 009.6C,00002195
2020-03-16 14:48:19 r, 17.84m,0000000006Hz,0000070928c,0000000.154s, 009.6C,00002195
2020-03-16 14:58:16 r, 17.84m,0000000007Hz,0000070998c,0000000.154s, 009.3C,00002195
2020-03-16 15:08:16 r, 17.80m,0000000006Hz,0000068175c,0000000.148s, 009.3C,00002195
2020-03-16 15:18:19 r, 17.72m,0000000007Hz,0000063235c,0000000.137s, 009.3C,00002195
2020-03-16 15:28:17 r, 17.66m,0000000007Hz,0000060355c,0000000.131s, 009.0C,00002195
2020-03-16 15:38:16 r, 17.15m,0000000013Hz,0000037391c,0000000.081s, 009.0C,00002195
2020-03-16 15:48:17 r, 16.36m,0000000025Hz,0000018300c,0000000.040s, 008.7C,00002195
2020-03-16 15:58:16 r, 14.55m,0000000135Hz,0000000000c,0000000.000s, 008.7C,00002195
2020-03-16 16:08:16 r, 12.40m,0000000977Hz,0000000000c,0000000.000s, 008.3C,00002195
2020-03-16 16:18:16 r, 10.40m,0000006165Hz,0000000000c,0000000.000s, 008.3C,00002195
2020-03-16 16:28:19 r, 08.74m,0000028474Hz,0000000000c,0000000.000s, 008.3C,00002195
2020-03-16 16:38:16 r, 07.56m,0000084476Hz,0000000000c,0000000.000s, 008.3C,00002195
2020-03-16 16:48:16 r, 06.76m,0000175915Hz,0000000000c,0000000.000s, 008.0C,00002195
2020-03-16 16:58:16 r, 06.23m,0000287722Hz,0000000000c,0000000.000s, 008.0C,00002195
2020-03-16 17:08:16 r, 00.00m,0000411988Hz,0000000000c,0000000.000s, 008.3C,00002195
2020-03-16 17:18:16 r, 00.00m,0000481494Hz,0000000000c,0000000.000s, 008.3C,00002195
2020-03-16 17:28:16 r, 00.00m,0000561844Hz,0000000000c,0000000.000s, 008.0C,00002195
2020-03-16 17:38:16 r, 00.00m,0000561766Hz,0000000000c,0000000.000s, 008.0C,00002195
2020-03-16 17:48:16 r, 00.00m,0000561865Hz,0000000000c,0000000.000s, 008.3C,00002195
2020-03-16 17:58:16 r, 00.00m,0000561896Hz,0000000000c,0000000.000s, 008.7C,00002195
2020-03-16 18:08:16 r, 00.00m,0000562024Hz,0000000000c,0000000.000s, 009.3C,00002195
2020-03-16 18:18:16 r, 00.00m,0000562248Hz,0000000000c,0000000.000s, 010.9C,00002195
2020-03-16 18:28:19 r, 00.00m,0000562503Hz,0000000000c,0000000.000s, 012.5C,00002195
2020-03-16 18:38:16 r, 00.00m,0000562596Hz,0000000000c,0000000.000s, 014.1C,00002195
2020-03-16 18:48:16 r, 00.00m,0000562889Hz,0000000000c,0000000.000s, 015.1C,00002195
2020-03-16 18:58:19 r, 00.00m,0000563021Hz,0000000000c,0000000.000s, 016.4C,00002195
2020-03-16 19:08:16 r, 00.00m,0000563076Hz,0000000000c,0000000.000s, 017.0C,00002195
2020-03-16 19:18:16 r, 00.00m,0000563100Hz,0000000000c,0000000.000s, 017.0C,00002195
2020-03-16 19:28:16 r, 00.00m,0000563149Hz,0000000000c,0000000.000s, 017.7C,00002195
2020-03-16 19:38:16 r, 00.00m,0000563296Hz,0000000000c,0000000.000s, 018.6C,00002195
2020-03-16 19:48:16 r, 00.00m,0000563246Hz,0000000000c,0000000.000s, 019.0C,00002195
2020-03-16 19:58:17 r, 00.00m,0000563483Hz,0000000000c,0000000.000s, 019.6C,00002195
2020-03-16 20:08:16 r, 00.00m,0000563556Hz,0000000000c,0000000.000s, 020.6C,00002195
2020-03-16 20:18:17 r, 00.00m,0000563678Hz,0000000000c,0000000.000s, 021.5C,00002195
2020-03-16 20:28:18 r, 00.00m,0000563705Hz,0000000000c,0000000.000s, 022.5C,00002195
2020-03-16 20:38:16 r, 00.00m,0000563857Hz,0000000000c,0000000.000s, 022.8C,00002195
2020-03-16 20:48:16 r, 00.00m,0000563808Hz,0000000000c,0000000.000s, 022.5C,00002195
2020-03-16 20:58:16 r, 00.00m,0000563770Hz,0000000000c,0000000.000s, 021.9C,00002195
2020-03-16 21:08:16 r, 00.00m,0000563835Hz,0000000000c,0000000.000s, 021.9C,00002195
2020-03-16 21:18:16 r, 00.00m,0000563812Hz,0000000000c,0000000.000s, 022.2C,00002195
2020-03-16 21:28:16 r, 00.00m,0000563860Hz,0000000000c,0000000.000s, 022.5C,00002195
2020-03-16 21:38:16 r, 00.00m,0000563871Hz,0000000000c,0000000.000s, 022.8C,00002195
2020-03-16 21:48:16 r, 00.00m,0000564037Hz,0000000000c,0000000.000s, 024.1C,00002195
2020-03-16 21:58:17 r, 00.00m,0000563988Hz,0000000000c,0000000.000s, 024.1C,00002195
2020-03-16 22:08:16 r, 00.00m,0000563866Hz,0000000000c,0000000.000s, 024.1C,00002195
2020-03-16 22:18:16 r, 00.00m,0000564060Hz,0000000000c,0000000.000s, 024.4C,00002195
2020-03-16 22:28:16 r, 00.00m,0000564082Hz,0000000000c,0000000.000s, 025.4C,00002195
2020-03-16 22:38:16 r, 00.00m,0000564225Hz,0000000000c,0000000.000s, 025.7C,00002195
2020-03-16 22:48:16 r, 00.00m,0000564170Hz,0000000000c,0000000.000s, 026.1C,00002195
2020-03-16 22:58:19 r, 00.00m,0000564204Hz,0000000000c,0000000.000s, 025.7C,00002195
2020-03-16 23:08:16 r, 00.00m,0000564126Hz,0000000000c,0000000.000s, 025.4C,00002195
2020-03-16 23:18:18 r, 00.00m,0000564186Hz,0000000000c,0000000.000s, 025.1C,00002195
2020-03-16 23:28:16 r, 00.00m,0000564082Hz,0000000000c,0000000.000s, 025.4C,00002195
2020-03-16 23:38:18 r, 00.00m,0000564119Hz,0000000000c,0000000.000s, 025.1C,00002195
2020-03-16 23:48:16 r, 00.00m,0000564031Hz,0000000000c,0000000.000s, 024.8C,00002195
2020-03-16 23:58:18 r, 00.00m,0000563974Hz,0000000000c,0000000.000s, 024.8C,00002195
